• In Czech Republic
  • List of Countries
  • For 7 days
  • Water Temperature
  • Satellite Maps
  • Weather Map
  • Weather Widgets
  • user-avatar
    Login

    Hourly Weather Asadabad

    Today, 11 December, Monday

    Time Temperature Precipitation Wind Pressure Humidity
    00:00 +8°C° 0 mm 3 mps 658 mmHg 27%
    01:00 +7°C° 0 mm 3 mps 657 mmHg 26%
    02:00 +7°C° 0 mm 3 mps 657 mmHg 25%
    03:00 +7°C° 0 mm 3 mps 657 mmHg 24%
    04:00 +7°C° 0 mm 2 mps 657 mmHg 24%
    05:00 +6°C° 0 mm 2 mps 657 mmHg 23%
    06:00 +6°C° 0 mm 2 mps 657 mmHg 23%
    07:00 +7°C° 0 mm 2 mps 657 mmHg 24%
    08:00 +8°C° 0 mm 1 mps 657 mmHg 24%
    09:00 +8°C° 0 mm 2 mps 658 mmHg 23%
    10:00 +10°C° 0 mm 2 mps 658 mmHg 23%
    11:00 +12°C° 0 mm 2 mps 658 mmHg 22%
    12:00 +12°C° 0 mm 2 mps 657 mmHg 24%
    13:00 +12°C° 0 mm 2 mps 657 mmHg 26%
    14:00 +13°C° 0 mm 2 mps 656 mmHg 28%
    15:00 +12°C° 0 mm 2 mps 656 mmHg 32%
    16:00 +9°C° 0 mm 2 mps 656 mmHg 36%
    17:00 +9°C° 0 mm 1 mps 656 mmHg 40%
    18:00 +8°C° 0 mm 1 mps 656 mmHg 43%
    19:00 +8°C° 0 mm 1 mps 656 mmHg 45%
    20:00 +7°C° 0 mm 1 mps 656 mmHg 48%
    21:00 +6°C° 0 mm 1 mps 655 mmHg 48%
    22:00 +6°C° 0 mm 1 mps 655 mmHg 48%
    23:00 +6°C° 0 mm 1 mps 655 mmHg 48%

    Tomorrow, 12 December, Tuesday

    Time Temperature Precipitation Wind Pressure Humidity
    00:00 +6°C° 0 mm 1 mps 655 mmHg 48%
    01:00 +5°C° 0 mm 1 mps 655 mmHg 48%
    02:00 +5°C° 0 mm 1 mps 654 mmHg 48%
    03:00 +5°C° 0 mm 1 mps 654 mmHg 47%
    04:00 +5°C° 0 mm 1 mps 654 mmHg 46%
    05:00 +4°C° 0 mm 1 mps 654 mmHg 45%
    06:00 +5°C° 0 mm 1 mps 654 mmHg 43%
    07:00 +5°C° 0 mm 1 mps 655 mmHg 41%
    08:00 +4°C° 0 mm 2 mps 655 mmHg 39%
    09:00 +6°C° 0 mm 2 mps 656 mmHg 35%
    10:00 +7°C° 0 mm 2 mps 656 mmHg 32%
    11:00 +9°C° 0 mm 2 mps 656 mmHg 28%
    12:00 +9°C° 0 mm 2 mps 656 mmHg 29%
    13:00 +10°C° 0 mm 2 mps 656 mmHg 30%
    14:00 +10°C° 0 mm 2 mps 656 mmHg 31%
    15:00 +9°C° 0 mm 2 mps 656 mmHg 34%
    16:00 +8°C° 0 mm 2 mps 656 mmHg 38%
    17:00 +8°C° 0 mm 1 mps 657 mmHg 41%
    18:00 +7°C° 0 mm 1 mps 657 mmHg 43%
    19:00 +6°C° 0 mm 1 mps 657 mmHg 46%
    20:00 +4°C° 0 mm 0 mps 658 mmHg 48%
    21:00 +5°C° 0 mm 1 mps 658 mmHg 49%
    22:00 +5°C° 0 mm 1 mps 658 mmHg 49%
    23:00 +4°C° 0 mm 1 mps 658 mmHg 50%

    Day after tomorrow, 13 December, Wednesday

    Time Temperature Precipitation Wind Pressure Humidity
    00:00 +4°C° 0 mm 1 mps 658 mmHg 50%
    01:00 +4°C° 0 mm 1 mps 658 mmHg 50%
    02:00 +3°C° 0 mm 2 mps 658 mmHg 50%
    03:00 +3°C° 0 mm 2 mps 658 mmHg 50%
    04:00 +3°C° 0 mm 2 mps 658 mmHg 50%
    05:00 +2°C° 0 mm 2 mps 658 mmHg 49%
    06:00 +3°C° 0 mm 2 mps 658 mmHg 47%
    07:00 +3°C° 0 mm 2 mps 659 mmHg 44%
    08:00 +3°C° 0 mm 2 mps 659 mmHg 42%
    09:00 +5°C° 0 mm 2 mps 659 mmHg 40%
    10:00 +6°C° 0 mm 2 mps 659 mmHg 37%
    11:00 +7°C° 0 mm 2 mps 659 mmHg 35%
    12:00 +8°C° 0 mm 2 mps 658 mmHg 36%
    13:00 +8°C° 0 mm 2 mps 658 mmHg 38%
    14:00 +8°C° 0 mm 2 mps 657 mmHg 39%
    15:00 +7°C° 0 mm 2 mps 657 mmHg 42%
    16:00 +7°C° 0 mm 2 mps 657 mmHg 46%
    17:00 +7°C° 0 mm 1 mps 657 mmHg 49%
    18:00 +6°C° 0 mm 1 mps 658 mmHg 51%
    19:00 +6°C° 0 mm 1 mps 658 mmHg 52%
    20:00 +5°C° 0 mm 2 mps 658 mmHg 54%
    21:00 +4°C° 0 mm 2 mps 658 mmHg 55%
    22:00 +4°C° 0 mm 2 mps 658 mmHg 55%
    23:00 +4°C° 0 mm 2 mps 658 mmHg 56%

    14 December, Thursday

    Time Temperature Precipitation Wind Pressure Humidity
    00:00 +4°C° 0 mm 2 mps 658 mmHg 55%
    01:00 +3°C° 0 mm 2 mps 658 mmHg 54%
    02:00 +3°C° 0 mm 2 mps 658 mmHg 54%
    03:00 +3°C° 0.1 mm 2 mps 658 mmHg 54%
    04:00 +3°C° 0.1 mm 2 mps 658 mmHg 54%
    05:00 +3°C° 0.1 mm 2 mps 658 mmHg 55%
    06:00 +3°C° 0.1 mm 2 mps 658 mmHg 56%
    07:00 +3°C° 0.1 mm 2 mps 659 mmHg 58%
    08:00 +3°C° 0.1 mm 2 mps 659 mmHg 59%
    09:00 +3°C° 0.3 mm 2 mps 659 mmHg 60%
    10:00 +4°C° 0.3 mm 2 mps 660 mmHg 62%
    11:00 +4°C° 0.3 mm 2 mps 660 mmHg 63%
    12:00 +4°C° 0.4 mm 2 mps 660 mmHg 64%
    13:00 +4°C° 0.4 mm 2 mps 660 mmHg 65%
    14:00 +4°C° 0.4 mm 2 mps 659 mmHg 66%
    15:00 +4°C° 0.4 mm 2 mps 660 mmHg 68%
    16:00 +4°C° 0.4 mm 2 mps 660 mmHg 71%
    17:00 +4°C° 0.4 mm 1 mps 660 mmHg 73%
    18:00 +3°C° 0.3 mm 2 mps 660 mmHg 74%
    19:00 +3°C° 0.3 mm 2 mps 661 mmHg 75%
    20:00 +2°C° 0.3 mm 2 mps 661 mmHg 76%
    21:00 +2°C° 0.3 mm 2 mps 661 mmHg 76%
    22:00 +2°C° 0.3 mm 2 mps 661 mmHg 76%
    23:00 +2°C° 0.3 mm 2 mps 661 mmHg 76%

    15 December, Friday

    Time Temperature Precipitation Wind Pressure Humidity
    00:00 +1°C° 0.2 mm 2 mps 661 mmHg 76%
    01:00 +1°C° 0.2 mm 2 mps 661 mmHg 75%
    02:00 +1°C° 0.2 mm 2 mps 661 mmHg 75%
    03:00 +1°C° 0.1 mm 2 mps 662 mmHg 74%
    04:00 +1°C° 0.1 mm 2 mps 662 mmHg 74%
    05:00 0°C° 0.1 mm 3 mps 662 mmHg 73%
    06:00 0°C° 0.1 mm 3 mps 662 mmHg 72%
    07:00 0°C° 0.1 mm 3 mps 663 mmHg 71%
    08:00 0°C° 0.1 mm 3 mps 663 mmHg 71%
    09:00 +1°C° 0.1 mm 3 mps 663 mmHg 67%
    10:00 +3°C° 0.1 mm 3 mps 663 mmHg 63%
    11:00 +4°C° 0.1 mm 3 mps 664 mmHg 58%
    12:00 +5°C° 0 mm 3 mps 663 mmHg 55%
    13:00 +5°C° 0 mm 3 mps 663 mmHg 52%
    14:00 +7°C° 0 mm 3 mps 662 mmHg 49%
    15:00 +5°C° 0 mm 3 mps 662 mmHg 50%
    16:00 +4°C° 0 mm 3 mps 662 mmHg 51%
    17:00 +3°C° 0 mm 3 mps 662 mmHg 51%
    18:00 +2°C° 0 mm 3 mps 663 mmHg 51%
    19:00 +1°C° 0 mm 3 mps 663 mmHg 51%
    20:00 -1°C° 0 mm 4 mps 664 mmHg 51%
    21:00 -1°C° 0 mm 4 mps 663 mmHg 50%
    22:00 -1°C° 0 mm 4 mps 663 mmHg 50%
    23:00 -1°C° 0 mm 4 mps 663 mmHg 49%

    16 December, Saturday

    Time Temperature Precipitation Wind Pressure Humidity
    00:00 -1°C° 0 mm 4 mps 663 mmHg 48%
    01:00 -1°C° 0 mm 4 mps 663 mmHg 48%
    02:00 -1°C° 0 mm 4 mps 662 mmHg 47%
    03:00 -1°C° 0 mm 4 mps 662 mmHg 47%
    04:00 -1°C° 0 mm 4 mps 662 mmHg 47%
    05:00 -1°C° 0 mm 4 mps 662 mmHg 47%
    06:00 -1°C° 0 mm 4 mps 662 mmHg 46%
    07:00 -1°C° 0 mm 4 mps 662 mmHg 46%
    08:00 -1°C° 0 mm 4 mps 663 mmHg 46%
    09:00 +3°C° 0 mm 3 mps 663 mmHg 43%
    10:00 +5°C° 0 mm 3 mps 663 mmHg 40%
    11:00 +8°C° 0 mm 2 mps 663 mmHg 37%
    12:00 +9°C° 0 mm 2 mps 663 mmHg 36%
    13:00 +10°C° 0 mm 2 mps 662 mmHg 34%
    14:00 +10°C° 0 mm 2 mps 662 mmHg 32%
    15:00 +9°C° 0 mm 2 mps 662 mmHg 35%
    16:00 +8°C° 0 mm 2 mps 662 mmHg 38%
    17:00 +6°C° 0 mm 2 mps 661 mmHg 41%
    18:00 +5°C° 0 mm 3 mps 662 mmHg 43%
    19:00 +4°C° 0 mm 3 mps 662 mmHg 44%
    20:00 +3°C° 0 mm 3 mps 663 mmHg 45%
    21:00 +3°C° 0 mm 3 mps 663 mmHg 45%
    22:00 +3°C° 0 mm 3 mps 663 mmHg 45%
    23:00 +3°C° 0 mm 3 mps 663 mmHg 45%
    Show more